Flag for U.S.A. Weather past 2 weeks in Spartanburg, South Carolina, U.S.A.

Now
55 °F

Sunny.


Feels Like: 54 °F
Forecast: 40 / 56 °F
Wind: 7 mph from Northwest

Location: Spartanburg Memorial

Current Time: Dec 25, 2014 at 1:46:40 PM

Latest Report: Dec 25, 2014 at 1:15 PM


Visibility: 10 mi

Pressure: 30.11 "Hg

Humidity: 41%

Dew point: 32 °F

Location of SpartanburgLocation

Historic Weather in Spartanburg — Graph

°F

Spartanburg temperature yesterday

Maximum temperature yesterday: 55 °F (at 9:15 PM)
Minimum temperature yesterday: 45 °F (at 12:15 AM)
Average temperature yesterday: 51 °F

Past Weeks' High & Low Weather Summary

 TemperatureHumidityPressure
High70 °F (Dec 13, 2:55 PM)100% (Dec 11, 5:35 AM)30.27 "Hg (Dec 11, 5:35 AM)
Low28 °F (Dec 11, 3:55 AM)10% (Dec 13, 1:55 PM)29.66 "Hg (Dec 24, 4:55 PM)
Average47 °F59%30.07 "Hg
* Reported Dec 10 12:15 PM — Dec 25 12:35 PM, Spartanburg, Weather by CustomWeather, © 2014

Note: Actual official high and low records may vary slightly from our data, if they occured in-between our weather recording intervals... More about our weather records

Advertising

Spartanburg weather history for previous 24 hours

 ConditionsComfort  
Time TempWeatherWind HumidityBarometerVisibility
12:35 PM
Dec 25
54 °FSunny.6 mph44%30.12 "Hg10 mi
12:15 PM54 °FSunny.6 mph44%30.13 "Hg10 mi
11:55 AM54 °FSunny.7 mph44%30.13 "Hg10 mi
11:35 AM52 °FSunny.13 mph47%30.13 "Hg10 mi
11:15 AM52 °FSunny.10 mph47%30.13 "Hg10 mi
10:55 AM52 °FSunny.9 mph47%30.13 "Hg10 mi
10:35 AM50 °FSunny.12 mph50%30.12 "Hg10 mi
10:15 AM50 °FSunny.9 mph50%30.12 "Hg10 mi
9:55 AM50 °FScattered clouds.9 mph50%30.10 "Hg10 mi
9:35 AM50 °FScattered clouds.7 mph54%30.08 "Hg10 mi
9:15 AM48 °FSunny.7 mph62%30.07 "Hg10 mi
8:55 AM46 °FSunny.No wind82%30.06 "Hg10 mi
8:35 AM45 °FSunny.No wind87%30.05 "Hg10 mi
8:15 AM43 °FSunny.3 mph93%30.04 "Hg10 mi
7:55 AM43 °FSunny.6 mph93%30.02 "Hg10 mi
7:35 AM45 °FSunny.3 mph81%30.01 "Hg10 mi
7:15 AM46 °FClear.No wind76%29.99 "Hg10 mi
6:55 AM46 °FClear.5 mph76%29.97 "Hg10 mi
6:35 AM46 °FClear.6 mph76%29.95 "Hg10 mi
6:15 AM46 °FClear.5 mph76%29.93 "Hg10 mi
5:55 AM46 °FClear.8 mph76%29.92 "Hg10 mi
5:35 AM46 °FClear.6 mph76%29.90 "Hg10 mi
5:15 AM48 °FClear.6 mph71%29.89 "Hg10 mi
4:55 AM48 °FClear.7 mph71%29.90 "Hg10 mi
4:35 AM48 °FClear.6 mph76%29.88 "Hg10 mi
4:15 AM48 °FClear.7 mph76%29.87 "Hg10 mi
3:55 AM50 °FClear.8 mph71%29.86 "Hg10 mi
3:35 AM50 °FClear.7 mph71%29.86 "Hg10 mi
3:15 AM50 °FClear.6 mph76%29.85 "Hg10 mi
2:55 AM50 °FClear.7 mph82%29.84 "Hg10 mi
2:35 AM50 °FClear.7 mph82%29.83 "Hg10 mi
2:15 AM50 °FClear.7 mph88%29.82 "Hg10 mi
1:55 AM50 °FClear.7 mph88%29.79 "Hg10 mi
1:35 AM50 °FClear.12 mph88%29.79 "Hg10 mi
1:15 AM50 °FClear.10 mph88%29.77 "Hg10 mi
12:55 AM50 °FClear.13 mph88%29.77 "Hg10 mi
12:35 AM50 °FClear.10 mph94%29.76 "Hg10 mi
12:15 AM52 °FClear.14 mph94%29.76 "Hg10 mi
11:55 PM
Dec 24
52 °FPassing clouds.10 mph100%29.75 "Hg10 mi
11:35 PM52 °FClear.10 mphN/A29.73 "Hg10 mi
11:15 PM52 °FPassing clouds.12 mphN/A29.74 "Hg10 mi
10:35 PM54 °FPassing clouds.9 mphN/A29.75 "Hg10 mi
10:15 PM54 °FClear.9 mphN/A29.73 "Hg10 mi
9:55 PM55 °FPassing clouds.7 mphN/A29.72 "Hg10 mi
9:35 PM55 °FPassing clouds.7 mphN/A29.71 "Hg10 mi
9:15 PM55 °FPassing clouds.7 mph100%29.70 "Hg10 mi
8:55 PM54 °FLow clouds.6 mph100%29.70 "Hg7 mi
8:35 PM54 °FFog.5 mphN/A29.70 "Hg1 mi
8:15 PM54 °FFog.3 mphN/A29.69 "Hg1 mi
7:55 PM54 °FFog.3 mphN/A29.69 "Hg1 mi
7:35 PM54 °FFog.3 mphN/A29.69 "Hg1 mi
6:55 PM54 °FFog.No windN/A29.67 "Hg0 mi
6:35 PM54 °FFog.No windN/A29.67 "Hg0 mi
6:15 PM54 °FFog.No windN/A29.68 "Hg0 mi
5:55 PM54 °FFog.No windN/A29.66 "Hg0 mi
5:35 PM54 °FFog.No windN/A29.66 "Hg0 mi
5:15 PM54 °FFog.No windN/A29.66 "Hg0 mi
4:55 PM54 °FFog.No windN/A29.66 "Hg0 mi
4:35 PM54 °FFog.No windN/A29.67 "Hg0 mi
4:15 PM54 °FFog.No windN/A29.67 "Hg0 mi
3:55 PM54 °FFog.No windN/A29.67 "Hg1 mi
3:35 PM54 °FDrizzle. Low clouds.No windN/A29.68 "Hg1 mi
3:15 PM54 °FDrizzle. Low clouds.No windN/A29.67 "Hg1 mi
2:55 PM52 °FDrizzle. Low clouds.No windN/A29.67 "Hg1 mi
2:35 PM52 °FDrizzle. Low clouds.3 mphN/A29.69 "Hg1 mi
1:55 PM52 °FFog.3 mphN/A29.67 "Hg1 mi
1:35 PM52 °FFog.6 mphN/A29.68 "Hg2 mi
1:15 PM52 °FFog.6 mphN/A29.70 "Hg2 mi
Weather by CustomWeather, © 2014

See weather overviewHow to use our weather pages